"startDT [UTC]","vpos","CH4 [ppm]","stdev(CH4) [ppm]","CO2 [ppm]","stdev(CO2) [ppm]","H2O_reported [%]","stdev(H2O_reported)","CavityPressure [torr]","CavityTemp [C]","OutletValve","CH4_dry [ppm]","CO2_dry [ppm]","DasTemp [C]","EtalonTemp [C]","WarmBoxTemp [C]","MPVPosition","T_ECpre [C]","T_EC1 [C]","T_EC2 [C]","p_inlet [hPa]","p_in [hPa]","p_out [hPa]","T_inlet [C]","RH_inlet [%]","dwpt_inlet [C]","T_vent [C]","RH_vent [%]","dwpt_vent [C]","flow_vent [l min-1]","flow_inlet [l min-1]","dwpt_sample [C]","T_room [C]"
2016-06-06 00:00:00,0.0,1.90171,0.00033,403.192,0.043,0.6146,0.0066,139.998,45.000,31872.09684,1.91342,406.229,36.504,45.070,45.000,0.00,0.09,-272.78,-272.84,-17,522,-953,26.0,13.7,-3.9,25.6,14.1,-3.8,5.73,1.68,-0.7,29.6
2016-06-06 00:01:00,0.0,1.90162,0.00045,403.245,0.059,0.6090,0.0066,140.001,45.000,31870.32469,1.91326,406.253,36.519,45.070,45.000,0.00,0.09,-272.79,-272.83,-18,522,-953,26.0,13.5,-4.1,25.6,14.2,-3.7,5.73,1.93,-0.8,29.6
2016-06-06 00:02:00,0.0,1.90182,0.00042,403.291,0.055,0.5987,0.0080,139.998,45.000,31870.03257,1.91320,406.249,36.531,45.070,45.000,0.00,0.09,-272.79,-272.84,-16,522,-953,26.0,13.3,-4.3,25.6,13.9,-4.0,5.73,1.92,-0.8,29.7
2016-06-06 00:03:00,0.0,1.90176,0.00052,403.271,0.034,0.6029,0.0039,139.997,45.000,31870.85326,1.91329,406.250,36.555,45.070,45.000,0.00,0.09,-272.78,-272.84,-16,522,-953,26.0,13.4,-4.2,25.6,13.9,-4.0,5.73,1.68,-0.7,29.6
2016-06-06 00:04:00,0.0,1.90108,0.00035,403.246,0.048,0.6038,0.0089,140.002,45.000,31874.40049,1.91261,406.229,36.556,45.069,45.000,0.00,0.09,-272.78,-272.84,-17,522,-953,26.0,13.5,-4.1,25.6,14.0,-3.9,5.73,1.81,-0.8,29.6
2016-06-06 00:05:00,0.0,1.90104,0.00030,403.199,0.072,0.6125,0.0108,140.000,45.000,31874.01724,1.91271,406.225,36.553,45.069,45.000,0.00,0.09,-272.78,-272.84,-18,522,-953,26.0,13.6,-4.0,25.6,14.1,-3.8,5.73,1.98,-0.7,29.6
2016-06-06 00:06:00,0.0,1.90160,0.00043,403.278,0.045,0.6027,0.0072,140.001,45.000,31872.33735,1.91307,406.256,36.559,45.069,45.000,0.00,0.09,-272.78,-272.85,-17,522,-953,26.0,13.4,-4.2,25.6,14.0,-3.9,5.73,1.77,-0.8,29.6
2016-06-06 00:07:00,0.0,1.90178,0.00038,403.269,0.065,0.6085,0.0088,140.001,45.000,31870.35386,1.91339,406.275,36.563,45.069,45.000,0.00,0.09,-272.77,-272.84,-16,522,-953,26.0,13.5,-4.1,25.6,14.0,-3.9,5.73,1.69,-0.8,29.6
2016-06-06 00:08:00,0.0,1.90172,0.00041,403.298,0.036,0.6044,0.0023,139.999,45.000,31870.68237,1.91326,406.285,36.564,45.069,45.000,0.00,0.09,-272.78,-272.84,-17,522,-953,26.0,13.5,-4.1,25.6,14.0,-3.9,5.73,1.96,-0.8,29.6
2016-06-06 00:09:00,0.0,1.90107,0.00049,403.088,0.061,0.6355,0.0095,139.998,45.000,31870.88231,1.91316,406.228,36.569,45.069,45.000,0.00,0.09,-272.78,-272.86,-18,522,-953,26.0,14.2,-3.4,25.6,14.5,-3.4,5.73,1.88,-0.7,29.6
2016-06-06 00:10:00,0.0,1.90125,0.00060,403.188,0.118,0.6244,0.0169,139.999,45.000,31868.42896,1.91317,406.274,36.587,45.069,45.000,0.00,0.09,-272.78,-272.84,-17,522,-953,25.9,13.9,-3.7,25.6,14.6,-3.3,5.73,1.66,-0.8,29.6
2016-06-06 00:11:00,0.0,1.90132,0.00055,403.229,0.077,0.6153,0.0104,140.001,45.000,31869.42404,1.91309,406.271,36.595,45.069,45.000,0.00,0.09,-272.78,-272.84,-16,522,-953,25.9,13.7,-3.9,25.6,14.2,-3.7,5.73,1.87,-0.8,29.5
2016-06-06 00:12:00,0.0,1.90129,0.00048,403.226,0.105,0.6149,0.0172,139.999,45.000,31867.98819,1.91299,406.264,36.598,45.069,45.000,0.00,0.09,-272.78,-272.85,-17,522,-953,25.9,13.6,-4.0,25.6,14.3,-3.6,5.73,1.96,-0.8,29.6
2016-06-06 00:13:00,0.0,1.90137,0.00040,403.299,0.068,0.6007,0.0090,140.003,45.000,31870.55945,1.91284,406.269,36.593,45.069,45.000,0.00,0.09,-272.78,-272.84,-18,522,-952,26.0,13.4,-4.2,25.6,14.0,-3.9,5.73,1.70,-0.8,29.6
2016-06-06 00:14:00,0.0,1.90124,0.00039,403.303,0.069,0.5972,0.0102,139.998,45.000,31870.35296,1.91263,406.253,36.601,45.069,45.000,0.00,0.09,-272.78,-272.83,-17,522,-953,26.0,13.2,-4.4,25.6,13.8,-4.1,5.73,1.76,-0.8,29.6
2016-06-06 00:15:00,0.0,1.90129,0.00050,403.271,0.064,0.6009,0.0091,139.999,45.000,31871.85265,1.91274,406.239,36.620,45.069,45.000,0.00,0.09,-272.79,-272.84,-16,522,-953,26.0,13.3,-4.2,25.6,13.8,-4.1,5.73,1.99,-0.8,29.6
2016-06-06 00:16:00,0.0,1.90141,0.00041,403.220,0.036,0.6076,0.0051,140.002,45.000,31870.78862,1.91297,406.222,36.625,45.069,45.000,0.00,0.09,-272.79,-272.85,-16,522,-953,26.0,13.5,-4.0,25.6,14.0,-3.9,5.73,1.80,-0.7,29.6
2016-06-06 00:17:00,0.0,1.90128,0.00039,403.210,0.075,0.6155,0.0091,139.996,45.000,31868.36320,1.91304,406.251,36.624,45.069,45.000,0.00,0.09,-272.78,-272.83,-18,522,-953,26.0,13.6,-3.9,25.6,14.2,-3.7,5.73,1.68,-0.7,29.7
2016-06-06 00:18:00,0.0,1.90159,0.00036,403.289,0.032,0.5984,0.0038,139.999,45.000,31870.20661,1.91298,406.246,36.617,45.069,45.000,0.00,0.09,-272.78,-272.84,-18,522,-953,26.0,13.3,-4.3,25.6,13.9,-4.0,5.73,1.93,-0.8,29.6
2016-06-06 00:19:00,0.0,1.90147,0.00039,403.286,0.026,0.5951,0.0039,140.000,45.000,31870.74422,1.91285,406.225,36.575,45.069,45.000,0.00,0.09,-272.78,-272.85,-16,522,-953,25.9,13.2,-4.4,25.6,13.8,-4.1,5.73,1.91,-0.8,29.6
2016-06-06 00:20:00,0.0,1.90111,0.00040,403.261,0.065,0.6028,0.0114,140.001,45.000,31871.67890,1.91258,406.238,36.575,45.070,45.000,0.00,0.09,-272.78,-272.84,-16,522,-952,26.0,13.4,-4.2,25.6,13.8,-4.0,5.73,1.67,-0.7,29.6
2016-06-06 00:21:00,0.0,1.90167,0.00043,403.293,0.050,0.5997,0.0072,140.002,45.000,31870.42453,1.91309,406.256,36.563,45.070,45.000,0.00,0.09,-272.78,-272.83,-17,522,-953,26.0,13.3,-4.3,25.6,13.9,-4.0,5.73,1.83,-0.7,29.6
2016-06-06 00:22:00,0.0,1.90136,0.00040,403.255,0.056,0.6036,0.0061,140.000,45.000,31870.28399,1.91287,406.237,36.562,45.070,45.000,0.00,0.09,-272.79,-272.85,-18,523,-953,25.9,13.4,-4.2,25.6,13.9,-4.0,5.73,1.97,-0.7,29.7
2016-06-06 00:23:00,0.0,1.90144,0.00035,403.204,0.047,0.6142,0.0070,140.000,45.000,31868.76813,1.91315,406.241,36.563,45.070,45.000,0.00,0.09,-272.78,-272.85,-17,523,-952,25.9,13.7,-3.9,25.6,14.2,-3.7,5.73,1.74,-0.7,29.7
2016-06-06 00:24:00,0.0,1.90145,0.00045,403.202,0.053,0.6134,0.0055,140.002,45.000,31870.18009,1.91313,406.231,36.582,45.070,45.000,0.00,0.09,-272.77,-272.84,-16,522,-953,26.0,13.6,-3.9,25.6,14.2,-3.7,5.73,1.72,-0.7,29.6
2016-06-06 00:25:00,0.0,1.90118,0.00060,403.206,0.050,0.6110,0.0066,140.001,45.000,31871.01295,1.91286,406.226,36.585,45.070,45.000,0.00,0.09,-272.78,-272.85,-17,522,-953,26.0,13.6,-3.9,25.6,14.1,-3.8,5.73,1.97,-0.7,29.5
2016-06-06 00:26:00,0.0,1.90058,0.00046,403.114,0.094,0.6244,0.0150,140.000,45.000,31873.60965,1.91250,406.200,36.565,45.070,45.000,0.00,0.09,-272.79,-272.85,-18,523,-952,26.0,13.9,-3.7,25.6,14.4,-3.5,5.73,1.85,-0.7,29.6
2016-06-06 00:27:00,0.0,1.90094,0.00043,403.183,0.044,0.6156,0.0059,139.999,45.000,31871.54120,1.91265,406.225,36.563,45.070,45.000,0.00,0.09,-272.78,-272.84,-17,523,-952,26.0,13.7,-3.9,25.6,14.2,-3.7,5.73,1.66,-0.8,29.6
2016-06-06 00:28:00,0.0,1.90031,0.00039,403.112,0.094,0.6249,0.0152,139.999,45.000,31871.99849,1.91224,406.202,36.564,45.070,45.000,0.00,0.09,-272.78,-272.83,-16,522,-953,26.0,13.9,-3.7,25.6,14.5,-3.4,5.73,1.90,-0.7,29.6
2016-06-06 00:29:00,0.0,1.90069,0.00050,403.244,0.048,0.5982,0.0073,139.999,45.000,31871.87121,1.91210,406.198,36.566,45.070,45.000,0.00,0.09,-272.79,-272.84,-17,522,-953,26.0,13.3,-4.3,25.6,13.9,-3.9,5.73,1.94,-0.7,29.6
2016-06-06 00:30:00,0.0,1.90012,0.00036,403.229,0.075,0.5999,0.0098,140.000,45.000,31870.61312,1.91154,406.192,36.564,45.070,45.000,0.00,0.09,-272.78,-272.85,-18,522,-953,26.0,13.3,-4.3,25.6,13.8,-4.1,5.73,1.68,-0.7,29.6
2016-06-06 00:31:00,0.0,1.89994,0.00050,403.222,0.063,0.6031,0.0114,139.998,45.000,31871.32906,1.91145,406.200,36.561,45.070,45.000,0.00,0.09,-272.78,-272.84,-17,523,-953,26.0,13.4,-4.2,25.6,13.9,-3.9,5.73,1.78,-0.7,29.6
2016-06-06 00:32:00,0.0,1.90052,0.00045,403.321,0.033,0.5852,0.0051,139.999,45.000,31871.23672,1.91165,406.211,36.556,45.069,45.000,0.00,0.09,-272.79,-272.84,-16,522,-953,26.0,13.0,-4.6,25.6,13.7,-4.2,5.73,1.99,-0.7,29.6
2016-06-06 00:33:00,0.0,1.90066,0.00038,403.298,0.038,0.5898,0.0053,139.999,45.000,31871.14360,1.91188,406.210,36.561,45.070,45.000,0.00,0.09,-272.78,-272.85,-16,522,-953,26.0,13.1,-4.5,25.6,13.6,-4.3,5.73,1.77,-0.7,29.6
2016-06-06 00:34:00,0.0,1.90062,0.00029,403.359,0.049,0.5778,0.0102,139.999,45.000,31871.41600,1.91163,406.213,36.564,45.069,45.000,0.00,0.09,-272.78,-272.84,-18,522,-953,26.0,12.8,-4.8,25.6,13.5,-4.4,5.73,1.69,-0.7,29.7
2016-06-06 00:35:00,0.0,1.90073,0.00049,403.326,0.034,0.5809,0.0036,140.002,45.000,31873.55760,1.91179,406.194,36.562,45.070,45.000,0.00,0.09,-272.78,-272.84,-17,523,-953,26.0,12.8,-4.7,25.6,13.4,-4.5,5.73,1.96,-0.7,29.6
2016-06-06 00:36:00,0.0,1.90049,0.00038,403.310,0.074,0.5831,0.0113,139.999,45.000,31874.41412,1.91158,406.189,36.563,45.069,45.000,0.00,0.09,-272.78,-272.85,-16,523,-952,26.0,12.9,-4.6,25.6,13.4,-4.5,5.73,1.87,-0.7,29.7
2016-06-06 00:37:00,0.0,1.90037,0.00051,403.218,0.042,0.5979,0.0066,139.999,45.000,31875.08070,1.91176,406.171,36.563,45.069,45.000,0.00,0.09,-272.78,-272.84,-16,522,-953,26.0,13.3,-4.3,25.7,13.7,-4.1,5.73,1.66,-0.7,29.7
2016-06-06 00:38:00,0.0,1.90046,0.00054,403.259,0.088,0.5959,0.0154,140.001,45.000,31874.10430,1.91183,406.201,36.563,45.070,45.000,0.00,0.09,-272.78,-272.84,-17,522,-953,26.0,13.2,-4.3,25.6,13.9,-4.0,5.73,1.87,-0.7,29.7
2016-06-06 00:39:00,0.0,1.89999,0.00053,403.261,0.060,0.5934,0.0121,140.000,45.000,31875.93160,1.91130,406.192,36.563,45.070,45.000,0.00,0.09,-272.79,-272.85,-18,523,-953,26.0,13.2,-4.4,25.6,13.6,-4.2,5.73,1.96,-0.7,29.6
2016-06-06 00:40:00,0.0,1.90012,0.00041,403.325,0.071,0.5837,0.0133,139.998,45.000,31874.53932,1.91122,406.208,36.563,45.070,45.000,0.00,0.09,-272.78,-272.84,-17,523,-952,26.0,12.9,-4.7,25.6,13.6,-4.2,5.73,1.69,-0.7,29.6
2016-06-06 00:41:00,0.0,1.90040,0.00032,403.384,0.052,0.5746,0.0082,139.996,45.000,31871.60005,1.91135,406.221,36.582,45.070,45.000,0.00,0.09,-272.78,-272.83,-16,522,-953,26.0,12.7,-4.9,25.6,13.2,-4.6,5.73,1.78,-0.7,29.7
2016-06-06 00:42:00,0.0,1.90001,0.00039,403.288,0.042,0.5983,0.0113,139.998,45.000,31871.20643,1.91139,406.243,36.604,45.069,45.000,0.00,0.09,-272.79,-272.84,-17,522,-952,26.0,13.3,-4.3,25.6,13.7,-4.2,5.73,1.99,-0.7,29.7
2016-06-06 00:43:00,0.0,1.90067,0.00046,403.357,0.039,0.5822,0.0062,140.000,45.000,31872.29792,1.91174,406.232,36.587,45.069,45.000,0.00,0.09,-272.78,-272.85,-18,522,-953,26.0,12.9,-4.7,25.6,13.5,-4.3,5.73,1.76,-0.7,29.6
2016-06-06 00:44:00,0.0,1.90047,0.00041,403.281,0.052,0.5930,0.0080,140.001,45.000,31874.77076,1.91173,406.210,36.573,45.069,45.000,0.00,0.09,-272.78,-272.84,-17,523,-953,26.0,13.2,-4.4,25.6,13.6,-4.2,5.73,1.70,-0.7,29.6
2016-06-06 00:45:00,0.0,1.90060,0.00046,403.258,0.055,0.5984,0.0099,140.001,45.000,31872.37095,1.91201,406.215,36.574,45.069,45.000,0.00,0.09,-272.78,-272.84,-16,523,-953,26.0,13.2,-4.3,25.6,13.8,-4.0,5.73,1.96,-0.7,29.7
2016-06-06 00:46:00,0.0,1.90081,0.00034,403.322,0.054,0.5881,0.0083,140.000,45.000,31874.00946,1.91202,406.224,36.574,45.069,45.000,0.00,0.09,-272.78,-272.85,-17,522,-953,26.0,13.1,-4.5,25.6,13.6,-4.3,5.73,1.87,-0.7,29.7
2016-06-06 00:47:00,0.0,1.90090,0.00041,403.307,0.043,0.5925,0.0074,139.998,45.000,31873.16490,1.91219,406.236,36.593,45.070,45.000,0.00,0.09,-272.77,-272.84,-18,522,-953,26.0,13.1,-4.5,25.6,13.7,-4.1,5.73,1.66,-0.7,29.7
2016-06-06 00:48:00,0.0,1.90075,0.00046,403.331,0.040,0.5841,0.0030,140.000,45.000,31875.98050,1.91188,406.215,36.583,45.069,45.000,0.00,0.09,-272.78,-272.83,-17,522,-953,26.0,13.0,-4.6,25.6,13.5,-4.3,5.73,1.88,-0.7,29.6
2016-06-06 00:49:00,0.0,1.90046,0.00041,403.263,0.045,0.5985,0.0063,140.000,45.000,31877.13171,1.91186,406.218,36.569,45.069,45.000,0.00,0.09,-272.79,-272.84,-16,523,-953,26.0,13.3,-4.3,25.6,13.7,-4.1,5.73,1.96,-0.7,29.7
2016-06-06 00:50:00,0.0,1.90021,0.00048,403.262,0.045,0.6026,0.0054,140.000,45.000,31876.25350,1.91170,406.240,36.564,45.070,45.000,0.00,0.09,-272.78,-272.85,-17,522,-953,26.0,13.4,-4.2,25.6,13.9,-4.0,5.73,1.69,-0.7,29.7
2016-06-06 00:51:00,0.0,1.90044,0.00042,403.381,0.028,0.5809,0.0043,140.002,45.000,31875.20986,1.91152,406.250,36.566,45.070,45.000,0.00,0.09,-272.78,-272.84,-18,522,-953,26.0,12.9,-4.7,25.7,13.5,-4.3,5.73,1.77,-0.8,29.7
2016-06-06 00:52:00,0.0,1.90045,0.00036,403.304,0.061,0.6022,0.0141,139.999,45.000,31875.08635,1.91190,406.278,36.575,45.070,45.000,0.00,0.09,-272.79,-272.84,-17,522,-953,26.0,13.4,-4.1,25.7,13.7,-4.1,5.73,1.99,-0.7,29.7
2016-06-06 00:53:00,0.0,1.90019,0.00047,403.220,0.039,0.6143,0.0071,140.000,45.000,31875.95484,1.91191,406.256,36.595,45.070,45.000,0.00,0.09,-272.79,-272.85,-16,522,-953,26.0,13.7,-3.9,25.6,14.2,-3.7,5.73,1.77,-0.7,29.7
2016-06-06 00:54:00,0.0,1.90024,0.00034,403.210,0.045,0.6241,0.0101,139.999,45.000,31876.11640,1.91211,406.295,36.597,45.070,45.000,0.00,0.09,-272.78,-272.84,-17,522,-953,26.0,13.9,-3.7,25.6,14.3,-3.6,5.73,1.69,-0.7,29.7
2016-06-06 00:55:00,0.0,1.90031,0.00036,403.297,0.073,0.5994,0.0140,140.001,45.000,31876.31253,1.91173,406.261,36.590,45.069,45.000,0.00,0.09,-272.78,-272.83,-18,523,-953,26.0,13.3,-4.3,25.6,14.1,-3.8,5.73,1.95,-0.7,29.7
2016-06-06 00:56:00,0.0,1.90021,0.00040,403.317,0.051,0.5963,0.0066,139.998,45.000,31874.64147,1.91155,406.262,36.592,45.069,45.000,0.00,0.09,-272.79,-272.85,-17,523,-953,26.0,13.2,-4.3,25.7,13.7,-4.1,5.73,1.89,-0.7,29.7
2016-06-06 00:57:00,0.0,1.90042,0.00052,403.257,0.031,0.6082,0.0078,140.000,45.000,31875.15039,1.91203,406.262,36.615,45.069,45.000,0.00,0.09,-272.78,-272.84,-16,522,-953,26.0,13.5,-4.1,25.6,14.0,-3.9,5.73,1.66,-0.7,29.6
2016-06-06 00:58:00,0.0,1.90067,0.00035,403.264,0.049,0.6139,0.0067,140.003,45.000,31874.53280,1.91234,406.299,36.624,45.069,45.000,0.00,0.09,-272.78,-272.83,-16,522,-953,26.0,13.6,-3.9,25.6,14.1,-3.7,5.73,1.84,-0.7,29.7
2016-06-06 00:59:00,0.0,1.90061,0.00038,403.233,0.038,0.6159,0.0067,139.999,45.000,31874.95096,1.91237,406.277,36.625,45.069,45.000,0.00,0.09,-272.79,-272.85,-17,523,-953,26.0,13.7,-3.9,25.7,14.2,-3.7,5.73,1.97,-0.7,29.6
2016-06-06 01:00:00,0.0,1.90064,0.00038,403.194,0.052,0.6226,0.0069,140.002,45.000,31876.64741,1.91252,406.270,36.625,45.069,45.000,0.00,0.09,-272.79,-272.85,-17,523,-953,26.0,13.9,-3.7,25.6,14.3,-3.6,5.73,1.72,-0.7,29.7
2016-06-06 01:01:00,0.0,1.90006,0.00028,403.214,0.046,0.6273,0.0064,140.000,45.000,31876.32042,1.91202,406.316,36.624,45.069,45.000,0.00,0.09,-272.77,-272.84,-16,522,-953,26.0,13.9,-3.6,25.6,14.4,-3.4,5.73,1.73,-0.7,29.7
2016-06-06 01:02:00,0.0,1.90042,0.00051,403.274,0.038,0.6161,0.0061,140.001,45.000,31874.55619,1.91215,406.321,36.620,45.069,45.000,0.00,0.09,-272.78,-272.84,-16,523,-953,26.0,13.7,-3.9,25.7,14.3,-3.6,5.73,1.97,-0.7,29.7
2016-06-06 01:03:00,0.0,1.90054,0.00025,403.261,0.039,0.6131,0.0065,140.003,45.000,31874.47333,1.91223,406.292,36.587,45.069,45.000,0.00,0.09,-272.78,-272.85,-17,523,-953,26.0,13.6,-3.9,25.7,14.2,-3.7,5.73,1.84,-0.7,29.6
2016-06-06 01:04:00,0.0,1.89997,0.00033,403.242,0.028,0.6191,0.0052,139.998,45.000,31876.21800,1.91177,406.300,36.566,45.070,45.000,0.00,0.09,-272.77,-272.84,-18,523,-953,26.0,13.8,-3.8,25.7,14.2,-3.6,5.73,1.66,-0.7,29.7
2016-06-06 01:05:00,0.0,1.89983,0.00044,403.174,0.032,0.6430,0.0055,139.999,45.000,31877.12438,1.91209,406.355,36.563,45.070,45.000,0.00,0.09,-272.78,-272.84,-17,523,-953,26.0,14.3,-3.3,25.7,14.7,-3.2,5.73,1.90,-0.7,29.7
2016-06-06 01:06:00,0.0,1.90010,0.00057,403.229,0.057,0.6226,0.0117,140.003,45.000,31879.34763,1.91195,406.307,36.563,45.070,45.001,0.00,0.09,-272.79,-272.85,-16,522,-953,26.0,13.8,-3.7,25.7,14.5,-3.3,5.73,1.94,-0.7,29.7
2016-06-06 01:07:00,0.0,1.90024,0.00042,403.250,0.064,0.6222,0.0085,139.998,45.000,31875.84036,1.91212,406.326,36.576,45.070,45.000,0.00,0.09,-272.78,-272.85,-17,522,-953,26.0,13.8,-3.8,25.6,14.3,-3.5,5.73,1.68,-0.7,29.7
2016-06-06 01:08:00,0.0,1.90064,0.00035,403.300,0.040,0.6114,0.0049,139.999,45.000,31874.84398,1.91231,406.322,36.584,45.070,45.000,0.00,0.09,-272.78,-272.83,-18,523,-953,26.0,13.6,-4.0,25.7,14.1,-3.7,5.73,1.80,-0.7,29.6
2016-06-06 01:09:00,0.0,1.90042,0.00041,403.292,0.031,0.6147,0.0042,140.001,45.000,31876.54757,1.91214,406.330,36.614,45.070,45.000,0.00,0.09,-272.79,-272.84,-17,523,-953,26.0,13.6,-3.9,25.7,14.2,-3.7,5.73,1.98,-0.7,29.7
2016-06-06 01:10:00,0.0,1.90056,0.00030,403.292,0.032,0.6144,0.0047,140.000,45.000,31875.89189,1.91225,406.329,36.600,45.070,45.000,0.00,0.09,-272.78,-272.85,-16,522,-953,26.0,13.6,-3.9,25.7,14.2,-3.7,5.73,1.75,-0.7,29.7
2016-06-06 01:11:00,0.0,1.90038,0.00031,403.270,0.035,0.6224,0.0032,140.001,45.000,31876.98123,1.91224,406.347,36.575,45.069,45.000,0.00,0.09,-272.78,-272.84,-17,522,-953,26.0,13.8,-3.7,25.6,14.3,-3.6,5.73,1.70,-0.7,29.7
2016-06-06 01:12:00,0.0,1.90014,0.00032,403.286,0.039,0.6201,0.0064,140.002,45.000,31878.04238,1.91198,406.351,36.573,45.069,45.000,0.00,0.09,-272.79,-272.84,-18,523,-953,26.0,13.8,-3.8,25.7,14.3,-3.5,5.73,1.97,-0.7,29.7
2016-06-06 01:13:00,0.0,1.90009,0.00029,403.240,0.045,0.6328,0.0055,140.000,45.000,31877.24764,1.91214,406.368,36.592,45.069,45.000,0.00,0.09,-272.79,-272.85,-17,523,-953,26.0,14.1,-3.5,25.7,14.5,-3.4,5.73,1.85,-0.7,29.7
2016-06-06 01:14:00,0.0,1.90003,0.00046,403.220,0.048,0.6385,0.0048,140.002,45.000,31875.61890,1.91221,406.379,36.618,45.069,45.000,0.00,0.09,-272.78,-272.84,-16,523,-953,26.0,14.2,-3.4,25.7,14.7,-3.2,5.73,1.66,-0.7,29.6
2016-06-06 01:15:00,0.0,1.90008,0.00047,403.205,0.026,0.6371,0.0057,140.000,45.000,31875.57806,1.91223,406.356,36.617,45.069,45.000,0.00,0.09,-272.78,-272.84,-16,522,-953,26.0,14.1,-3.4,25.7,14.7,-3.2,5.73,1.89,-0.7,29.7
2016-06-06 01:16:00,0.0,1.90016,0.00042,403.217,0.051,0.6295,0.0079,140.000,45.000,31876.59722,1.91217,406.329,36.609,45.069,45.000,0.00,0.09,-272.78,-272.85,-17,523,-953,26.0,14.0,-3.6,25.7,14.5,-3.4,5.73,1.94,-0.7,29.7
2016-06-06 01:17:00,0.0,1.90003,0.00044,403.176,0.042,0.6430,0.0068,140.000,45.000,31878.33759,1.91227,406.356,36.620,45.069,45.000,0.00,0.09,-272.77,-272.85,-17,523,-953,26.0,14.2,-3.3,25.7,14.8,-3.1,5.73,1.69,-0.8,29.6
2016-06-06 01:18:00,0.0,1.90052,0.00036,403.236,0.036,0.6304,0.0065,140.000,45.000,31878.44747,1.91253,406.353,36.596,45.069,45.000,0.00,0.09,-272.78,-272.84,-16,523,-953,26.0,14.0,-3.5,25.7,14.6,-3.3,5.73,1.78,-0.8,29.7
2016-06-06 01:19:00,0.0,1.90056,0.00029,403.210,0.032,0.6406,0.0031,140.001,45.000,31877.15093,1.91277,406.378,36.590,45.069,45.000,0.00,0.09,-272.79,-272.84,-16,522,-953,26.0,14.2,-3.3,25.7,14.7,-3.2,5.73,1.99,-0.7,29.7
2016-06-06 01:20:00,0.0,1.90060,0.00041,403.246,0.034,0.6347,0.0036,139.999,45.000,31877.23657,1.91271,406.386,36.603,45.069,45.000,0.00,0.09,-272.79,-272.85,-17,522,-953,26.0,14.1,-3.4,25.6,14.7,-3.2,5.73,1.77,-0.7,29.7
2016-06-06 01:21:00,0.0,1.90048,0.00045,403.226,0.041,0.6383,0.0062,140.002,45.000,31879.07132,1.91267,406.382,36.611,45.069,45.000,0.00,0.09,-272.78,-272.84,-18,523,-953,26.0,14.2,-3.4,25.7,14.7,-3.2,5.73,1.69,-0.7,29.7
2016-06-06 01:22:00,0.0,1.90059,0.00041,403.245,0.044,0.6357,0.0055,139.998,45.000,31877.26441,1.91272,406.388,36.623,45.069,45.000,0.00,0.09,-272.79,-272.84,-17,523,-952,26.0,14.1,-3.4,25.7,14.6,-3.2,5.73,1.95,-0.7,29.6
2016-06-06 01:23:00,0.0,1.90066,0.00031,403.276,0.034,0.6369,0.0039,140.000,45.000,31876.82581,1.91282,406.427,36.623,45.069,45.000,0.00,0.09,-272.78,-272.85,-16,523,-953,26.0,14.1,-3.4,25.7,14.6,-3.2,5.73,1.88,-0.8,29.6
2016-06-06 01:24:00,0.0,1.90106,0.00029,403.341,0.033,0.6246,0.0041,139.998,45.000,31876.19123,1.91297,406.430,36.631,45.069,45.000,0.00,0.09,-272.78,-272.84,-17,522,-953,26.0,13.8,-3.7,25.7,14.5,-3.4,5.73,1.65,-0.7,29.7
2016-06-06 01:25:00,0.0,1.90101,0.00038,403.312,0.037,0.6230,0.0047,140.000,45.000,31879.39078,1.91289,406.393,36.644,45.070,45.000,0.00,0.09,-272.78,-272.83,-18,523,-953,26.0,13.8,-3.7,25.7,14.4,-3.5,5.73,1.87,-0.7,29.6
2016-06-06 01:26:00,0.0,1.90142,0.00044,403.296,0.041,0.6367,0.0073,139.998,45.000,31876.25781,1.91353,406.443,36.631,45.069,45.000,0.00,0.09,-272.79,-272.84,-17,523,-953,26.0,14.2,-3.4,25.7,14.6,-3.3,5.73,1.96,-0.7,29.6
2016-06-06 01:27:00,0.0,1.90115,0.00044,403.254,0.044,0.6459,0.0079,139.999,45.000,31878.42848,1.91349,406.448,36.629,45.069,45.000,0.00,0.09,-272.78,-272.84,-16,523,-953,26.0,14.3,-3.2,25.7,14.8,-3.1,5.73,1.70,-0.7,29.7
2016-06-06 01:28:00,0.0,1.90088,0.00040,403.203,0.033,0.6569,0.0046,139.998,45.000,31877.90322,1.91345,406.456,36.627,45.069,45.000,0.00,0.09,-272.78,-272.84,-17,522,-953,26.0,14.6,-3.0,25.7,15.1,-2.8,5.73,1.76,-0.7,29.6
2016-06-06 01:29:00,0.0,1.90080,0.00039,403.252,0.035,0.6469,0.0072,140.001,45.000,31878.55584,1.91314,406.453,36.625,45.069,45.000,0.00,0.09,-272.79,-272.84,-18,523,-953,26.0,14.3,-3.2,25.7,15.0,-2.9,5.73,1.99,-0.7,29.7
2016-06-06 01:30:00,0.0,1.90087,0.00040,403.261,0.033,0.6455,0.0040,140.002,45.000,31879.23401,1.91321,406.454,36.625,45.070,45.000,0.00,0.09,-272.78,-272.85,-17,523,-953,26.0,14.3,-3.2,25.7,14.9,-3.0,5.73,1.78,-0.7,29.6
2016-06-06 01:31:00,0.0,1.90074,0.00043,403.213,0.045,0.6535,0.0070,140.001,45.000,31879.24545,1.91318,406.448,36.625,45.070,45.000,0.00,0.09,-272.77,-272.84,-16,523,-953,26.1,14.5,-3.0,25.7,15.0,-2.9,5.73,1.68,-0.7,29.7
2016-06-06 01:32:00,0.0,1.90085,0.00041,403.296,0.048,0.6329,0.0073,140.002,45.000,31880.02660,1.91294,406.426,36.628,45.070,45.000,0.00,0.09,-272.78,-272.84,-17,523,-953,26.0,14.0,-3.5,25.7,14.7,-3.1,5.73,1.94,-0.7,29.7
2016-06-06 01:33:00,0.0,1.90116,0.00040,403.306,0.037,0.6301,0.0042,139.999,45.000,31878.15549,1.91318,406.423,36.641,45.070,45.000,0.00,0.09,-272.79,-272.85,-18,523,-953,26.0,14.0,-3.5,25.7,14.5,-3.4,5.73,1.90,-0.8,29.7
2016-06-06 01:34:00,0.0,1.90083,0.00032,403.226,0.045,0.6439,0.0048,140.000,45.000,31880.00943,1.91309,406.412,36.636,45.070,45.000,0.00,0.09,-272.79,-272.84,-17,523,-953,26.0,14.3,-3.3,25.7,14.8,-3.1,5.73,1.67,-0.7,29.7
2016-06-06 01:35:00,0.0,1.90089,0.00032,403.218,0.031,0.6422,0.0044,140.000,45.000,31880.20593,1.91317,406.395,36.629,45.069,45.000,0.00,0.09,-272.78,-272.84,-16,523,-953,26.0,14.2,-3.3,25.7,14.8,-3.1,5.73,1.84,-0.8,29.6
2016-06-06 01:36:00,0.0,1.90139,0.00037,403.281,0.047,0.6369,0.0079,140.000,45.000,31878.41373,1.91351,406.430,36.627,45.070,45.000,0.00,0.09,-272.79,-272.84,-17,523,-953,26.0,14.1,-3.4,25.7,14.7,-3.1,5.73,1.98,-0.7,29.7
2016-06-06 01:37:00,0.0,1.90102,0.00038,403.289,0.032,0.6386,0.0059,139.999,45.000,31879.97806,1.91320,406.448,36.625,45.070,45.000,0.00,0.09,-272.78,-272.85,-17,523,-953,26.0,14.2,-3.4,25.7,14.7,-3.2,5.73,1.71,-0.8,29.7
2016-06-06 01:38:00,0.0,1.90109,0.00035,403.260,0.029,0.6434,0.0046,140.002,45.000,31880.24111,1.91338,406.443,36.624,45.070,45.000,0.00,0.09,-272.77,-272.84,-17,523,-953,26.0,14.3,-3.3,25.7,14.8,-3.1,5.73,1.73,-0.7,29.7
2016-06-06 01:39:00,0.0,1.90107,0.00033,403.259,0.050,0.6482,0.0072,140.000,45.000,31877.74887,1.91346,406.466,36.616,45.070,45.000,0.00,0.09,-272.78,-272.84,-16,523,-952,26.0,14.4,-3.2,25.7,14.9,-2.9,5.73,1.98,-0.7,29.7
2016-06-06 01:40:00,0.0,1.90141,0.00039,403.315,0.028,0.6391,0.0038,140.000,45.000,31877.53509,1.91359,406.477,36.594,45.070,45.000,0.00,0.09,-272.79,-272.84,-16,523,-953,26.0,14.2,-3.4,25.7,14.8,-3.1,5.73,1.83,-0.8,29.7
2016-06-06 01:41:00,0.0,1.90122,0.00035,403.284,0.038,0.6463,0.0037,140.002,45.000,31880.39922,1.91355,406.482,36.571,45.070,45.000,0.00,0.09,-272.77,-272.84,-17,523,-953,26.0,14.4,-3.2,25.7,14.8,-3.0,5.73,1.67,-0.7,29.7
2016-06-06 01:42:00,0.0,1.90105,0.00041,403.244,0.033,0.6521,0.0048,140.001,45.000,31879.76769,1.91352,406.471,36.576,45.070,45.000,0.00,0.09,-272.78,-272.84,-17,523,-953,26.0,14.5,-3.1,25.7,15.0,-2.8,5.73,1.90,-0.7,29.7
2016-06-06 01:43:00,0.0,1.90138,0.00034,403.297,0.030,0.6413,0.0051,139.997,45.000,31878.39856,1.91360,406.470,36.570,45.070,45.000,0.00,0.09,-272.79,-272.85,-16,523,-953,26.0,14.2,-3.3,25.7,14.8,-3.0,5.73,1.94,-0.7,29.6
2016-06-06 01:44:00,0.0,1.90156,0.00037,403.334,0.054,0.6332,0.0066,140.003,45.000,31879.09218,1.91365,406.466,36.565,45.070,45.000,0.00,0.09,-272.77,-272.85,-16,523,-953,26.0,14.0,-3.5,25.7,14.6,-3.2,5.73,1.68,-0.7,29.6
2016-06-06 01:45:00,0.0,1.90176,0.00036,403.355,0.033,0.6264,0.0029,140.000,45.000,31878.37818,1.91370,406.453,36.574,45.070,45.000,0.00,0.09,-272.77,-272.84,-17,523,-953,26.1,13.9,-3.7,25.7,14.5,-3.4,5.73,1.79,-0.7,29.6